Seeley, CA

11:40 PM PDT on July 26, 2016 (GMT -0700)
El Centro Naval Air Facility | | Change Station

Elev -43 ft 32.83 °N, 115.66 °W | Updated 44 minutes ago

Clear
Clear
99 °F
Feels Like 96 °F
N
9
Wind Variable Wind from SW

Today
High -- | Low -- °F
--% Chance of Precip.
Yesterday
High -- | Low -- °F
Precip. -- in
Pressure 29.78 in
Visibility 10.0 miles
Clouds Clear
Heat Index 96 °F
Dew Point 53 °F
Humidity 21%
Rainfall 0.00 in
Snow Depth Not available.
5:52 AM 7:45 PM
Waning Gibbous, 46% visible
METAR KNJK 270556Z 23008KT 10SM CLR 37/12 A2973 RMK AO2 SLP082 T03720117 10439 20367 51020 $
Pressure 29.78 in
Visibility 10.0 miles
Clouds Clear
Heat Index 96 °F
Dew Point 53 °F
Humidity 21%
Rainfall 0.00 in
Snow Depth Not available.
5:52 AM 7:45 PM
Waning Gibbous, 46% visible
METAR KNJK 270556Z 23008KT 10SM CLR 37/12 A2973 RMK AO2 SLP082 T03720117 10439 20367 51020 $

10-Day Weather Forecast

Almanac

Astronomy

Jul. 26, 2016 Rise Set
Actual Time
Civil Twilight
Nautical Twilight
Astronomical Twilight
Moon
Length of Visible Light
Length of Day
Tomorrow will be .
, % of the Moon is Illuminated

Today's Extremes

State Highs State Lows

Community

WunderPhotos

Upload Photos

1,927,818 photos uploaded!

WunderBlog® & News

Nearby

Air Quality

  Air Quality AQ Index Pollutant
Not available.

Snow Depth

Station Depth Elevation

Earthquake Activity

City Distance Mag. Time & Date
Minimum magnitude displayed is 2.5.

Coastal Water Temperatures

Place Temperature

Stations

Nearby Weather Stations

Station Location Temp. Windchill Dew Point Humidity Wind Precip. Elev Updated Type
                   

Watches & Warnings

There are currently no watches in effect.